Flag for U.S.A. Weather past 2 weeks in Chula Vista, California, U.S.A.

Now
66 °F

Overcast.


Feels Like: 66 °F
Forecast: 63 / 78 °F
Wind: 5 mph from West

Location: Brown Field Municipal Airport

Current Time: Sep 4, 2015 at 11:39:09 PM

Latest Report: Sep 4, 2015 at 10:53 PM


Visibility: 10 mi

Pressure: 29.88 "Hg

Humidity: 78%

Dew point: 59 °F

Location of Chula VistaLocation

Historic Weather in Chula Vista — Graph

°F

Chula Vista temperature yesterday

Maximum temperature yesterday: 76 °F (at 12:53 PM)
Minimum temperature yesterday: 64 °F (at 12:53 AM)
Average temperature yesterday: 68 °F

Past Weeks' High & Low Weather Summary

 TemperatureHumidityPressure
High93 °F (Aug 28, 11:53 AM)100% (Aug 26, 4:53 AM)29.99 "Hg (Aug 26, 4:53 AM)
Low64 °F (Sep 2, 11:53 PM)24% (Aug 28, 4:53 PM)29.81 "Hg (Aug 28, 4:53 PM)
Average72 °F74%29.90 "Hg
* Reported Aug 20 9:53 PM — Sep 4 9:53 PM, Chula Vista, Weather by CustomWeather, © 2015

Note: Actual official high and low records may vary slightly from our data, if they occured in-between our weather recording intervals... More about our weather records

Advertising

Chula Vista weather history for previous 24 hours

 ConditionsComfort  
Time TempWeatherWind HumidityBarometerVisibility
9:53 PM
Fri, Sep 4
66 °FOvercast.3 mph78%29.88 "Hg10 mi
8:53 PM65 °FPassing clouds.5 mph81%29.87 "Hg10 mi
7:53 PM65 °FSunny.6 mph81%29.85 "Hg10 mi
6:53 PM67 °FPassing clouds.5 mph76%29.83 "Hg10 mi
5:53 PM70 °FPassing clouds.8 mph68%29.84 "Hg9 mi
4:53 PM72 °FSunny.9 mph64%29.84 "Hg10 mi
3:53 PM74 °FSunny.8 mph57%29.84 "Hg10 mi
2:53 PM74 °FSunny.10 mph57%29.84 "Hg10 mi
1:53 PM74 °FSunny.9 mph56%29.86 "Hg10 mi
12:53 PM76 °FSunny.13 mph50%29.87 "Hg10 mi
11:53 AM77 °FSunny.8 mph50%29.88 "Hg9 mi
10:53 AM75 °FPartly sunny.6 mph54%29.89 "Hg10 mi
9:53 AM72 °FSunny.3 mph55%29.89 "Hg10 mi
8:53 AM70 °FPartly sunny.3 mph59%29.89 "Hg10 mi
7:53 AM68 °FOvercast.No wind65%29.89 "Hg10 mi
6:53 AM67 °FOvercast.No wind71%29.87 "Hg10 mi
5:53 AM65 °FPassing clouds.5 mph76%29.86 "Hg10 mi
4:53 AM66 °FOvercast.No wind75%29.85 "Hg10 mi
3:53 AM67 °FPassing clouds.No wind73%29.85 "Hg10 mi
2:53 AM66 °FOvercast.No wind75%29.85 "Hg10 mi
1:53 AM67 °FOvercast.No wind73%29.86 "Hg10 mi
12:53 AM66 °FOvercast.No wind75%29.86 "Hg10 mi
11:53 PM
Thu, Sep 3
65 °FOvercast.No wind78%29.86 "Hg10 mi
Weather by CustomWeather, © 2015

See weather overviewHow to use our weather pages